This demonstration page uses our WeatherBlox Daily Observations layout. Learn more.

Left ArrowRight Arrow

Hourly Observations for June 9, 2020

Temp ( °F °C ) Dew Point ( °F °C ) Humidity (%) Winds ( mph kmh ) Pressure ( in mb ) Visibility ( mi km ) Precip ( " mm )
12:53 am 00:53 Clear 87 30.6 39 3.9 18 18 W 12 19 29.54 1001 N/A 0.00 0.00
1:53 am 01:53 Clear 83 28.3 38 3.3 20 20 W 10 17 29.56 1001 N/A 0.00 0.00
2:53 am 02:53 Clear 81 27.2 38 3.3 21 21 W 6 9 29.58 1002 N/A 0.00 0.00
3:53 am 03:53 Clear 78 25.6 36 2.2 22 22 W 5 7 29.60 1002 N/A 0.00 0.00
4:53 am 04:53 Clear 74 23.3 35 1.7 24 24 W 10 17 29.63 1003 N/A 0.00 0.00
5:26 am 05:26 Clear 75 23.9 14 -10 10 10 N 18 30 29.68 1005 N/A 0.00 0.00
5:53 am 05:53 Clear 73 22.8 11 -11.7 9 9 N 21 33 29.69 1005 N/A 0.00 0.00
6:53 am 06:53 Sunny 69 20.6 12 -11.1 11 11 N 17 28 29.73 1007 N/A 0.00 0.00
7:53 am 07:53 Sunny 70 21.1 9 -12.8 9 9 N 21 33 29.77 1008 N/A 0.00 0.00
8:53 am 08:53 Sunny 72 22.2 11 -11.7 9 9 N 28 44 29.81 1009 N/A 0.00 0.00
9:53 am 09:53 Sunny 75 23.9 10 -12.2 8 8 NNW 24 39 29.83 1010 N/A 0.00 0.00
10:53 am 10:53 Sunny 78 25.6 11 -11.7 8 8 N 18 30 29.85 1011 N/A 0.00 0.00
11:53 am 11:53 Sunny 81 27.2 10 -12.2 7 7 NNW 21 33 29.85 1011 N/A 0.00 0.00
12:53 pm 12:53 Sunny 85 29.4 10 -12.2 6 6 NW 23 37 29.83 1010 N/A 0.00 0.00
1:53 pm 13:53 Sunny 87 30.6 10 -12.2 5 5 NW 20 31 29.82 1010 N/A 0.00 0.00
2:53 pm 14:53 Sunny 88 31.1 12 -11.1 6 6 NNW 12 19 29.81 1010 N/A 0.00 0.00
3:53 pm 15:53 Sunny 90 32.2 10 -12.2 5 5 WNW 13 20 29.80 1009 N/A 0.00 0.00
4:53 pm 16:53 Sunny 91 32.8 11 -11.7 5 5 NNW 14 22 29.79 1009 N/A 0.00 0.00
5:53 pm 17:53 Sunny 91 32.8 10 -12.2 5 5 NNE 12 19 29.79 1009 N/A 0.00 0.00
6:53 pm 18:53 Sunny 90 32.2 11 -11.7 5 5 NNW 5 7 29.79 1009 N/A 0.00 0.00
7:53 pm 19:53 Sunny 89 31.7 12 -11.1 5 5 N 5 7 29.80 1009 N/A 0.00 0.00
8:53 pm 20:53 Sunny 82 27.8 15 -9.4 8 8 ENE 6 9 29.82 1010 N/A 0.00 0.00
9:53 pm 21:53 Clear 77 25 15 -9.4 9 9 E 6 9 29.84 1010 N/A 0.00 0.00
10:53 pm 22:53 Clear 75 23.9 15 -9.4 10 10 E 5 7 29.86 1011 N/A 0.00 0.00
11:53 pm 23:53 Clear 70 21.1 16 -8.9 12 12 Calm 29.88 1012 N/A 0.00 0.00

Powered by AerisWeather